QPF
0.04 0.04 0.09 0.09 0.09 0.09 0.10 0.10 0.09 0.07 0.07 0.09 0.09 0.09 0.16 0.22 0.19 0.15 0.14 0.16 0.16 0.18 0.20 0.15 0.17 0.23 0.20 0.17 0.11 0.08 0.08 0.09 0.09 0.07 0.07 0.08 0.10 0.15 0.19 0.22 0.15 0.11 0.17
0.02 0.03 0.08 0.06 0.06 0.06 0.08 0.08 0.08 0.07 0.07 0.07 0.07 0.06 0.11 0.17 0.16 0.15 0.15 0.15 0.19 0.18 0.13 0.10 0.09 0.10 0.13 0.14 0.13 0.11 0.11 0.11 0.10 0.08 0.06 0.12 0.20 0.24 0.31 0.30 0.17 0.16 0.25
0.01 0.01 0.03 0.06 0.06 0.05 0.05 0.06 0.07 0.07 0.07 0.06 0.06 0.04 0.06 0.13 0.17 0.20 0.18 0.18 0.19 0.15 0.12 0.10 0.08 0.09 0.11 0.10 0.11 0.14 0.13 0.13 0.12 0.14 0.11 0.16 0.18 0.15 0.31 0.36 0.19 0.16 0.20
0.01 0.01 0.03 0.06 0.06 0.06 0.06 0.06 0.06 0.07 0.09 0.07 0.06 0.06 0.06 0.13 0.22 0.26 0.29 0.27 0.24 0.19 0.14 0.12 0.09 0.09 0.09 0.09 0.11 0.11 0.11 0.10 0.10 0.17 0.13 0.13 0.15 0.14 0.26 0.33 0.17 0.11 0.23
0.01 0.01 0.03 0.06 0.07 0.07 0.07 0.06 0.05 0.07 0.09 0.08 0.06 0.05 0.05 0.09 0.19 0.28 0.31 0.30 0.23 0.19 0.16 0.13 0.11 0.10 0.09 0.08 0.09 0.08 0.10 0.08 0.07 0.08 0.06 0.07 0.11 0.17 0.23 0.25 0.15 0.10 0.15
0.00 0.01 0.02 0.03 0.04 0.05 0.06 0.07 0.07 0.06 0.09 0.08 0.05 0.04 0.05 0.06 0.07 0.10 0.16 0.24 0.18 0.12 0.12 0.12 0.11 0.09 0.10 0.13 0.09 0.08 0.08 0.07 0.05 0.05 0.05 0.04 0.06 0.11 0.14 0.14 0.14 0.13 0.11
0.00 0.01 0.01 0.02 0.04 0.04 0.05 0.06 0.07 0.05 0.08 0.08 0.06 0.05 0.06 0.07 0.10 0.11 0.16 0.28 0.23 0.13 0.10 0.10 0.10 0.08 0.08 0.10 0.10 0.09 0.06 0.04 0.03 0.04 0.04 0.03 0.05 0.08 0.12 0.13 0.14 0.14 0.10
0.00 0.01 0.01 0.02 0.03 0.03 0.04 0.06 0.06 0.04 0.07 0.08 0.07 0.05 0.06 0.08 0.11 0.18 0.21 0.25 0.20 0.12 0.11 0.09 0.07 0.06 0.08 0.09 0.08 0.09 0.07 0.04 0.02 0.04 0.05 0.04 0.07 0.11 0.13 0.15 0.16 0.15 0.13
0.01 0.00 0.01 0.03 0.04 0.04 0.05 0.07 0.05 0.04 0.05 0.06 0.07 0.05 0.06 0.11 0.11 0.14 0.18 0.18 0.12 0.09 0.08 0.06 0.05 0.04 0.04 0.05 0.06 0.06 0.06 0.04 0.02 0.04 0.04 0.04 0.08 0.12 0.14 0.14 0.15 0.17 0.16
0.02 0.02 0.05 0.06 0.03 0.03 0.06 0.11 0.09 0.06 0.06 0.04 0.04 0.03 0.05 0.11 0.16 0.15 0.11 0.11 0.10 0.09 0.07 0.06 0.05 0.04 0.03 0.03 0.04 0.03 0.03 0.03 0.02 0.03 0.04 0.06 0.09 0.12 0.12 0.13 0.14 0.16 0.15
0.02 0.04 0.13 0.13 0.06 0.04 0.07 0.16 0.15 0.09 0.08 0.04 0.03 0.03 0.04 0.06 0.10 0.12 0.11 0.12 0.12 0.10 0.08 0.07 0.05 0.04 0.03 0.03 0.03 0.02 0.01 0.02 0.03 0.03 0.04 0.08 0.12 0.13 0.17 0.17 0.15 0.16 0.17
0.02 0.03 0.15 0.22 0.11 0.06 0.10 0.21 0.19 0.09 0.06 0.04 0.02 0.02 0.02 0.02 0.03 0.07 0.11 0.13 0.12 0.10 0.08 0.07 0.05 0.04 0.03 0.03 0.02 0.01 0.01 0.01 0.02 0.04 0.06 0.08 0.12 0.14 0.18 0.13 0.12 0.14 0.15
0.02 0.02 0.14 0.24 0.17 0.12 0.14 0.19 0.17 0.09 0.06 0.04 0.02 0.01 0.02 0.03 0.04 0.06 0.09 0.11 0.09 0.08 0.07 0.05 0.04 0.03 0.02 0.02 0.02 0.02 0.01 0.02 0.03 0.05 0.08 0.12 0.13 0.13 0.13 0.12 0.12 0.11 0.10
0.02 0.04 0.15 0.20 0.15 0.12 0.12 0.14 0.11 0.09 0.06 0.04 0.01 0.01 0.02 0.04 0.05 0.05 0.05 0.05 0.04 0.05 0.04 0.03 0.02 0.03 0.03 0.03 0.03 0.02 0.02 0.02 0.03 0.04 0.05 0.10 0.14 0.16 0.16 0.14 0.13 0.11 0.09
0.01 0.04 0.16 0.20 0.15 0.11 0.10 0.09 0.07 0.06 0.05 0.03 0.02 0.01 0.01 0.01 0.01 0.02 0.02 0.01 0.02 0.04 0.04 0.03 0.03 0.03 0.03 0.03 0.02 0.02 0.02 0.02 0.02 0.02 0.03 0.07 0.12 0.13 0.13 0.13 0.11 0.11 0.09
0.01 0.02 0.11 0.16 0.14 0.09 0.07 0.05 0.04 0.04 0.04 0.03 0.01 0.01 0.01 0.01 0.01 0.01 0.02 0.01 0.02 0.03 0.04 0.04 0.04 0.03 0.03 0.02 0.02 0.01 0.02 0.01 0.01 0.01 0.01 0.03 0.06 0.08 0.09 0.10 0.09 0.09 0.08
0.00 0.01 0.07 0.11 0.11 0.07 0.04 0.03 0.03 0.02 0.02 0.04 0.03 0.01 0.01 0.01 0.02 0.02 0.02 0.03 0.04 0.03 0.04 0.03 0.03 0.02 0.02 0.02 0.01 0.01 0.01 0.01 0.00 0.01 0.01 0.02 0.02 0.04 0.06 0.08 0.08 0.08 0.07
0.00 0.01 0.02 0.06 0.07 0.05 0.04 0.02 0.02 0.02 0.01 0.02 0.02 0.03 0.02 0.02 0.02 0.02 0.01 0.02 0.03 0.02 0.02 0.02 0.02 0.01 0.01 0.01 0.01 0.01 0.01 0.01 0.00 0.01 0.01 0.02 0.01 0.03 0.05 0.07 0.08 0.08 0.08
0.02 0.01 0.02 0.03 0.03 0.03 0.03 0.02 0.02 0.01 0.01 0.01 0.01 0.02 0.02 0.01 0.01 0.01 0.02 0.02 0.01 0.01 0.01 0.01 0.00 0.00 0.00 0.00 0.01 0.01 0.01 0.01 0.01 0.01 0.02 0.02 0.02 0.03 0.05 0.07 0.09 0.09 0.09
0.04 0.04 0.03 0.02 0.02 0.03 0.03 0.04 0.04 0.03 0.01 0.01 0.02 0.03 0.04 0.03 0.02 0.02 0.02 0.02 0.02 0.02 0.02 0.01 0.00 0.00 0.00 0.00 0.00 0.00 0.00 0.00 0.01 0.01 0.02 0.02 0.02 0.03 0.05 0.09 0.11 0.11 0.09
0.04 0.05 0.05 0.04 0.03 0.02 0.03 0.03 0.02 0.02 0.02 0.03 0.04 0.04 0.04 0.05 0.03 0.02 0.02 0.02 0.02 0.02 0.03 0.04 0.02 0.01 0.00 0.00 0.00 0.00 0.00 0.00 0.02 0.03 0.03 0.03 0.03 0.05 0.08 0.12 0.12 0.07 0.06
0.05 0.06 0.06 0.06 0.04 0.03 0.03 0.03 0.03 0.03 0.03 0.04 0.05 0.05 0.05 0.05 0.05 0.04 0.03 0.02 0.01 0.02 0.02 0.02 0.03 0.02 0.02 0.01 0.00 0.00 0.00 0.01 0.02 0.04 0.06 0.06 0.06 0.06 0.08 0.09 0.09 0.09 0.06
0.05 0.06 0.06 0.07 0.06 0.05 0.03 0.03 0.02 0.02 0.02 0.02 0.03 0.04 0.04 0.04 0.05 0.05 0.04 0.02 0.01 0.01 0.01 0.01 0.03 0.04 0.03 0.02 0.02 0.01 0.01 0.01 0.02 0.04 0.06 0.06 0.06 0.08 0.10 0.08 0.09 0.10 0.08
0.06 0.05 0.06 0.07 0.07 0.06 0.05 0.03 0.01 0.01 0.01 0.01 0.02 0.03 0.04 0.04 0.04 0.06 0.04 0.03 0.01 0.01 0.00 0.01 0.03 0.05 0.04 0.03 0.03 0.02 0.01 0.01 0.01 0.02 0.03 0.04 0.05 0.06 0.08 0.07 0.06 0.06 0.06
0.05 0.04 0.05 0.07 0.06 0.07 0.05 0.03 0.02 0.01 0.01 0.02 0.03 0.03 0.03 0.03 0.04 0.04 0.04 0.04 0.02 0.02 0.01 0.01 0.02 0.04 0.04 0.03 0.03 0.02 0.02 0.01 0.01 0.01 0.01 0.03 0.03 0.05 0.07 0.06 0.04 0.04 0.04
0.04 0.05 0.05 0.06 0.08 0.07 0.06 0.04 0.02 0.01 0.01 0.01 0.02 0.03 0.02 0.02 0.03 0.03 0.03 0.03 0.03 0.02 0.02 0.01 0.01 0.02 0.02 0.02 0.02 0.03 0.03 0.02 0.01 0.01 0.01 0.02 0.02 0.03 0.06 0.06 0.04 0.03 0.03
MSLP
1012.37 1011.66 1011.02 1010.53 1010.19 1009.98 1009.87 1009.78 1009.66 1009.48 1009.21 1008.89 1008.56 1008.27 1008.06 1007.94 1007.89 1007.89 1007.89 1007.87 1007.79 1007.66 1007.51 1007.35 1007.21 1007.11 1007.05 1007.00 1006.95 1006.87 1006.75 1006.61 1006.48 1006.38 1006.37 1006.45 1006.63 1006.89 1007.20 1007.51 1007.79 1008.02 1008.20
1012.63 1011.93 1011.30 1010.81 1010.47 1010.27 1010.15 1010.06 1009.93 1009.73 1009.46 1009.16 1008.86 1008.61 1008.44 1008.37 1008.36 1008.39 1008.41 1008.39 1008.31 1008.18 1008.01 1007.84 1007.69 1007.58 1007.50 1007.43 1007.36 1007.25 1007.12 1006.98 1006.85 1006.76 1006.76 1006.85 1007.04 1007.30 1007.60 1007.89 1008.14 1008.34 1008.49
1012.81 1012.12 1011.51 1011.04 1010.73 1010.55 1010.45 1010.36 1010.24 1010.06 1009.81 1009.52 1009.26 1009.04 1008.91 1008.85 1008.86 1008.89 1008.89 1008.84 1008.74 1008.58 1008.40 1008.22 1008.06 1007.95 1007.87 1007.80 1007.72 1007.62 1007.50 1007.37 1007.25 1007.19 1007.22 1007.33 1007.52 1007.78 1008.05 1008.32 1008.55 1008.73 1008.87
1012.91 1012.26 1011.69 1011.27 1011.00 1010.86 1010.79 1010.74 1010.64 1010.47 1010.25 1009.99 1009.75 1009.55 1009.42 1009.37 1009.35 1009.34 1009.31 1009.21 1009.07 1008.88 1008.67 1008.49 1008.34 1008.24 1008.17 1008.12 1008.07 1007.99 1007.90 1007.79 1007.71 1007.68 1007.72 1007.85 1008.04 1008.29 1008.54 1008.78 1008.99 1009.15 1009.28
1012.99 1012.40 1011.90 1011.54 1011.33 1011.25 1011.22 1011.19 1011.12 1010.98 1010.77 1010.53 1010.30 1010.11 1009.98 1009.90 1009.84 1009.78 1009.68 1009.53 1009.33 1009.11 1008.89 1008.70 1008.57 1008.49 1008.45 1008.44 1008.41 1008.37 1008.31 1008.25 1008.20 1008.20 1008.26 1008.39 1008.57 1008.79 1009.02 1009.23 1009.41 1009.56 1009.70
1013.13 1012.61 1012.19 1011.91 1011.77 1011.74 1011.75 1011.74 1011.68 1011.55 1011.35 1011.12 1010.90 1010.71 1010.56 1010.44 1010.34 1010.22 1010.06 1009.84 1009.60 1009.34 1009.10 1008.91 1008.79 1008.74 1008.74 1008.76 1008.77 1008.77 1008.75 1008.71 1008.69 1008.71 1008.78 1008.90 1009.07 1009.26 1009.45 1009.63 1009.78 1009.92 1010.07
1013.38 1012.94 1012.61 1012.41 1012.33 1012.34 1012.37 1012.37 1012.30 1012.16 1011.96 1011.73 1011.51 1011.32 1011.16 1011.02 1010.88 1010.70 1010.48 1010.21 1009.92 1009.62 1009.37 1009.18 1009.07 1009.04 1009.06 1009.10 1009.15 1009.17 1009.17 1009.16 1009.16 1009.18 1009.25 1009.36 1009.50 1009.66 1009.81 1009.96 1010.09 1010.22 1010.37
1013.76 1013.41 1013.16 1013.03 1013.01 1013.04 1013.06 1013.04 1012.95 1012.78 1012.57 1012.34 1012.12 1011.94 1011.78 1011.64 1011.47 1011.26 1011.00 1010.68 1010.35 1010.02 1009.74 1009.54 1009.43 1009.39 1009.42 1009.47 1009.51 1009.54 1009.55 1009.55 1009.55 1009.58 1009.64 1009.73 1009.85 1009.98 1010.10 1010.22 1010.34 1010.46 1010.62
1014.23 1013.97 1013.81 1013.75 1013.76 1013.79 1013.79 1013.73 1013.59 1013.40 1013.17 1012.94 1012.74 1012.58 1012.44 1012.30 1012.14 1011.91 1011.62 1011.27 1010.90 1010.54 1010.23 1010.00 1009.86 1009.81 1009.81 1009.83 1009.86 1009.87 1009.86 1009.85 1009.85 1009.87 1009.93 1010.01 1010.12 1010.23 1010.34 1010.44 1010.54 1010.66 1010.82
1014.75 1014.58 1014.49 1014.48 1014.51 1014.53 1014.50 1014.40 1014.22 1013.99 1013.75 1013.53 1013.35 1013.22 1013.12 1013.01 1012.86 1012.63 1012.33 1011.96 1011.56 1011.16 1010.82 1010.55 1010.37 1010.26 1010.21 1010.19 1010.17 1010.14 1010.10 1010.06 1010.05 1010.06 1010.12 1010.20 1010.31 1010.42 1010.53 1010.64 1010.74 1010.86 1011.01
1015.23 1015.14 1015.13 1015.17 1015.21 1015.22 1015.16 1015.01 1014.80 1014.55 1014.31 1014.11 1013.97 1013.88 1013.82 1013.75 1013.62 1013.40 1013.09 1012.71 1012.28 1011.85 1011.47 1011.15 1010.91 1010.74 1010.62 1010.53 1010.44 1010.35 1010.26 1010.19 1010.16 1010.17 1010.22 1010.32 1010.44 1010.58 1010.70 1010.82 1010.94 1011.07 1011.22
1015.61 1015.60 1015.65 1015.74 1015.80 1015.81 1015.73 1015.56 1015.32 1015.07 1014.84 1014.67 1014.56 1014.52 1014.50 1014.47 1014.36 1014.16 1013.85 1013.46 1013.02 1012.56 1012.14 1011.77 1011.47 1011.23 1011.03 1010.85 1010.69 1010.52 1010.38 1010.26 1010.20 1010.20 1010.26 1010.38 1010.53 1010.69 1010.85 1011.00 1011.14 1011.28 1011.45
1015.84 1015.91 1016.02 1016.15 1016.24 1016.26 1016.17 1016.00 1015.77 1015.53 1015.33 1015.19 1015.13 1015.12 1015.14 1015.13 1015.04 1014.86 1014.56 1014.17 1013.72 1013.25 1012.80 1012.39 1012.03 1011.72 1011.44 1011.18 1010.92 1010.68 1010.47 1010.30 1010.20 1010.19 1010.25 1010.39 1010.56 1010.76 1010.96 1011.15 1011.32 1011.49 1011.68
1015.94 1016.07 1016.24 1016.41 1016.52 1016.56 1016.49 1016.34 1016.14 1015.93 1015.76 1015.66 1015.63 1015.65 1015.69 1015.69 1015.62 1015.44 1015.16 1014.78 1014.34 1013.87 1013.41 1012.98 1012.58 1012.21 1011.86 1011.51 1011.17 1010.85 1010.56 1010.34 1010.19 1010.15 1010.21 1010.35 1010.55 1010.78 1011.01 1011.24 1011.45 1011.66 1011.87
1015.94 1016.11 1016.32 1016.52 1016.66 1016.72 1016.69 1016.58 1016.42 1016.25 1016.12 1016.05 1016.04 1016.07 1016.11 1016.11 1016.04 1015.88 1015.61 1015.26 1014.85 1014.41 1013.97 1013.53 1013.11 1012.70 1012.29 1011.87 1011.45 1011.05 1010.69 1010.40 1010.20 1010.12 1010.16 1010.28 1010.48 1010.73 1010.99 1011.25 1011.50 1011.75 1012.00
1015.87 1016.07 1016.30 1016.51 1016.68 1016.77 1016.78 1016.72 1016.61 1016.49 1016.40 1016.35 1016.34 1016.36 1016.38 1016.37 1016.30 1016.15 1015.91 1015.60 1015.25 1014.86 1014.45 1014.04 1013.62 1013.19 1012.74 1012.26 1011.77 1011.30 1010.87 1010.51 1010.26 1010.13 1010.12 1010.21 1010.39 1010.63 1010.90 1011.18 1011.46 1011.74 1012.03
1015.80 1016.00 1016.23 1016.44 1016.62 1016.74 1016.79 1016.78 1016.72 1016.65 1016.58 1016.54 1016.53 1016.52 1016.52 1016.48 1016.40 1016.27 1016.07 1015.82 1015.54 1015.22 1014.88 1014.51 1014.12 1013.68 1013.20 1012.69 1012.15 1011.62 1011.13 1010.71 1010.39 1010.20 1010.14 1010.18 1010.32 1010.53 1010.78 1011.06 1011.36 1011.67 1011.99
1015.75 1015.93 1016.13 1016.33 1016.51 1016.65 1016.74 1016.77 1016.77 1016.74 1016.70 1016.66 1016.62 1016.58 1016.53 1016.47 1016.39 1016.27 1016.12 1015.94 1015.74 1015.51 1015.25 1014.94 1014.59 1014.17 1013.69 1013.15 1012.59 1012.02 1011.48 1011.02 1010.65 1010.40 1010.27 1010.25 1010.33 1010.49 1010.71 1010.96 1011.25 1011.57 1011.91
1015.68 1015.84 1016.02 1016.19 1016.36 1016.52 1016.64 1016.72 1016.77 1016.78 1016.75 1016.71 1016.64 1016.56 1016.48 1016.39 1016.29 1016.20 1016.10 1016.00 1015.89 1015.75 1015.57 1015.34 1015.03 1014.65 1014.18 1013.65 1013.08 1012.50 1011.95 1011.45 1011.05 1010.75 1010.57 1010.49 1010.50 1010.59 1010.74 1010.95 1011.20 1011.50 1011.85
1015.58 1015.71 1015.86 1016.01 1016.17 1016.34 1016.50 1016.63 1016.73 1016.78 1016.77 1016.72 1016.63 1016.51 1016.39 1016.27 1016.17 1016.10 1016.05 1016.02 1015.99 1015.95 1015.85 1015.69 1015.45 1015.11 1014.68 1014.18 1013.63 1013.07 1012.53 1012.04 1011.63 1011.30 1011.08 1010.93 1010.87 1010.88 1010.95 1011.09 1011.28 1011.53 1011.85
1015.37 1015.49 1015.61 1015.75 1015.92 1016.11 1016.31 1016.50 1016.66 1016.75 1016.77 1016.72 1016.61 1016.46 1016.30 1016.15 1016.05 1015.99 1015.99 1016.02 1016.07 1016.10 1016.09 1016.00 1015.82 1015.54 1015.17 1014.72 1014.22 1013.71 1013.22 1012.77 1012.37 1012.05 1011.79 1011.60 1011.47 1011.40 1011.38 1011.42 1011.52 1011.70 1011.96
1015.02 1015.14 1015.25 1015.39 1015.58 1015.81 1016.07 1016.33 1016.54 1016.69 1016.75 1016.71 1016.58 1016.41 1016.22 1016.05 1015.93 1015.89 1015.92 1016.00 1016.11 1016.21 1016.26 1016.24 1016.13 1015.92 1015.61 1015.24 1014.82 1014.40 1013.98 1013.59 1013.25 1012.95 1012.69 1012.46 1012.27 1012.12 1012.00 1011.94 1011.94 1012.02 1012.18
1014.50 1014.63 1014.76 1014.91 1015.14 1015.42 1015.75 1016.08 1016.37 1016.58 1016.68 1016.66 1016.54 1016.35 1016.14 1015.95 1015.82 1015.78 1015.82 1015.93 1016.08 1016.23 1016.34 1016.38 1016.33 1016.20 1015.98 1015.70 1015.39 1015.06 1014.75 1014.45 1014.17 1013.92 1013.67 1013.43 1013.19 1012.96 1012.76 1012.59 1012.48 1012.44 1012.50
1013.82 1013.98 1014.14 1014.33 1014.61 1014.96 1015.36 1015.77 1016.13 1016.40 1016.55 1016.56 1016.44 1016.25 1016.02 1015.82 1015.68 1015.63 1015.67 1015.79 1015.96 1016.14 1016.29 1016.38 1016.40 1016.34 1016.22 1016.04 1015.84 1015.64 1015.43 1015.24 1015.04 1014.84 1014.62 1014.38 1014.11 1013.83 1013.54 1013.28 1013.07 1012.92 1012.86
1013.05 1013.24 1013.44 1013.68 1014.01 1014.43 1014.90 1015.38 1015.81 1016.14 1016.33 1016.36 1016.26 1016.07 1015.84 1015.62 1015.47 1015.40 1015.44 1015.56 1015.73 1015.92 1016.09 1016.23 1016.30 1016.32 1016.28 1016.21 1016.13 1016.04 1015.95 1015.85 1015.74 1015.60 1015.42 1015.19 1014.91 1014.60 1014.26 1013.93 1013.64 1013.40 1013.24
1012.25 1012.48 1012.72 1013.02 1013.40 1013.87 1014.39 1014.93 1015.41 1015.78 1016.00 1016.06 1015.98 1015.79 1015.56 1015.33 1015.17 1015.08 1015.10 1015.20 1015.36 1015.55 1015.74 1015.90 1016.02 1016.10 1016.15 1016.18 1016.20 1016.21 1016.23 1016.22 1016.19 1016.11 1015.97 1015.77 1015.50 1015.18 1014.83 1014.46 1014.12 1013.82 1013.59
Thickness
5762 5766 5768 5770 5771 5771 5772 5773 5774 5774 5775 5776 5776 5776 5776 5776 5776 5776 5775 5776 5775 5775 5774 5774 5774 5774 5774 5774 5774 5774 5773 5773 5773 5773 5772 5772 5772 5772 5772 5771 5771 5770 5769
5763 5765 5767 5768 5769 5770 5770 5771 5771 5771 5772 5773 5773 5773 5774 5774 5774 5774 5773 5772 5772 5771 5771 5771 5771 5772 5772 5771 5771 5771 5771 5771 5771 5770 5770 5769 5769 5769 5769 5769 5768 5767 5767
5762 5764 5765 5766 5767 5767 5768 5768 5768 5769 5769 5770 5770 5770 5771 5771 5770 5770 5769 5769 5769 5769 5768 5768 5768 5769 5768 5768 5769 5768 5768 5768 5768 5767 5767 5767 5767 5767 5767 5766 5766 5765 5765
5761 5762 5763 5764 5764 5764 5765 5765 5765 5765 5766 5766 5767 5767 5767 5767 5767 5767 5766 5766 5766 5766 5765 5765 5765 5765 5765 5765 5765 5765 5765 5765 5765 5763 5763 5764 5765 5766 5766 5764 5763 5762 5762
5759 5759 5760 5761 5761 5761 5762 5762 5762 5762 5762 5762 5763 5763 5763 5763 5763 5763 5762 5762 5763 5762 5762 5761 5761 5762 5761 5762 5761 5761 5761 5761 5761 5760 5760 5761 5762 5763 5762 5761 5760 5759 5759
5756 5756 5757 5757 5758 5758 5758 5758 5758 5758 5758 5758 5758 5759 5759 5759 5759 5759 5759 5759 5759 5759 5758 5757 5757 5758 5758 5758 5757 5757 5757 5757 5757 5757 5757 5757 5758 5758 5758 5757 5756 5756 5755
5752 5753 5753 5753 5754 5754 5754 5754 5754 5754 5754 5754 5754 5754 5755 5755 5755 5755 5756 5756 5755 5755 5754 5754 5753 5753 5754 5753 5753 5753 5753 5753 5753 5752 5752 5753 5754 5755 5755 5754 5753 5753 5752
5749 5749 5749 5749 5749 5750 5750 5750 5750 5750 5750 5750 5750 5750 5750 5750 5751 5751 5753 5753 5751 5750 5750 5750 5749 5749 5749 5749 5749 5749 5749 5749 5748 5749 5749 5749 5750 5751 5751 5750 5750 5749 5748
5746 5745 5745 5745 5745 5745 5745 5746 5745 5745 5745 5745 5745 5745 5745 5745 5745 5746 5746 5746 5746 5746 5746 5745 5745 5744 5745 5744 5744 5745 5745 5744 5745 5745 5745 5745 5746 5747 5747 5746 5746 5745 5744
5741 5741 5740 5740 5741 5740 5740 5740 5741 5741 5741 5740 5740 5740 5740 5740 5740 5741 5741 5741 5741 5741 5741 5740 5740 5740 5740 5740 5740 5740 5740 5740 5740 5741 5741 5742 5742 5743 5742 5742 5742 5741 5740
5736 5736 5736 5736 5736 5736 5736 5735 5736 5736 5736 5735 5735 5735 5735 5735 5735 5735 5736 5736 5736 5736 5735 5735 5735 5735 5735 5735 5735 5735 5735 5735 5736 5736 5737 5737 5738 5738 5738 5737 5737 5736 5736
5730 5731 5732 5731 5732 5732 5731 5731 5731 5731 5731 5731 5731 5730 5730 5730 5730 5730 5730 5730 5730 5730 5730 5729 5730 5730 5730 5730 5730 5730 5730 5731 5731 5732 5732 5733 5734 5734 5733 5733 5732 5732 5732
5728 5728 5729 5728 5729 5729 5728 5727 5727 5727 5726 5726 5726 5726 5726 5725 5725 5724 5724 5724 5724 5724 5724 5724 5724 5724 5724 5724 5724 5724 5725 5725 5726 5726 5727 5728 5729 5729 5729 5728 5728 5727 5727
5725 5725 5726 5726 5726 5725 5725 5724 5723 5722 5722 5721 5721 5721 5721 5720 5719 5718 5718 5718 5718 5718 5718 5718 5718 5718 5718 5718 5719 5719 5719 5719 5720 5720 5721 5723 5723 5724 5724 5724 5723 5723 5722
5723 5723 5723 5723 5723 5722 5721 5720 5719 5719 5718 5717 5717 5717 5716 5715 5714 5713 5713 5713 5713 5713 5713 5712 5712 5713 5712 5713 5713 5713 5713 5713 5714 5714 5715 5717 5718 5718 5719 5719 5719 5719 5718
5721 5721 5721 5720 5720 5719 5718 5717 5716 5715 5715 5714 5713 5713 5712 5711 5710 5709 5708 5708 5708 5708 5707 5707 5707 5707 5707 5706 5706 5706 5707 5708 5708 5708 5709 5710 5711 5712 5713 5713 5714 5713 5714
5720 5719 5719 5718 5716 5716 5715 5714 5713 5712 5711 5710 5709 5709 5708 5707 5706 5705 5703 5703 5702 5702 5702 5702 5702 5702 5701 5700 5700 5700 5700 5701 5702 5702 5703 5704 5705 5706 5707 5707 5707 5708 5708
5718 5717 5716 5716 5714 5713 5712 5710 5709 5709 5708 5707 5706 5705 5704 5703 5702 5701 5699 5698 5698 5698 5697 5697 5696 5695 5694 5693 5693 5693 5694 5695 5696 5696 5697 5698 5698 5699 5700 5701 5701 5702 5702
5716 5715 5713 5712 5711 5710 5708 5707 5706 5705 5704 5703 5702 5701 5700 5699 5697 5696 5695 5694 5693 5693 5692 5691 5689 5689 5687 5687 5687 5687 5687 5688 5689 5690 5691 5691 5692 5693 5693 5694 5695 5695 5696
5713 5712 5710 5709 5708 5707 5705 5703 5701 5700 5699 5698 5698 5697 5696 5695 5693 5692 5691 5689 5689 5688 5686 5685 5684 5683 5682 5682 5683 5681 5681 5682 5683 5683 5684 5685 5685 5686 5687 5688 5688 5688 5689
5710 5708 5707 5705 5704 5703 5700 5698 5696 5694 5694 5694 5693 5692 5692 5691 5690 5689 5687 5685 5684 5683 5681 5680 5678 5677 5676 5676 5676 5674 5675 5676 5677 5677 5677 5678 5679 5680 5680 5681 5682 5682 5682
5706 5705 5704 5703 5701 5700 5699 5697 5694 5692 5690 5690 5689 5688 5687 5687 5686 5685 5683 5681 5680 5678 5676 5675 5674 5671 5670 5670 5669 5667 5665 5666 5669 5671 5671 5671 5672 5673 5674 5675 5675 5676 5676
5703 5702 5702 5700 5699 5697 5696 5694 5691 5688 5686 5684 5683 5683 5683 5682 5681 5681 5679 5677 5675 5674 5672 5670 5669 5668 5665 5665 5665 5663 5659 5657 5658 5662 5663 5664 5665 5666 5667 5668 5668 5669 5669
5702 5701 5700 5698 5696 5694 5692 5690 5687 5684 5681 5680 5679 5679 5679 5678 5677 5676 5674 5673 5671 5669 5668 5667 5666 5665 5663 5660 5659 5659 5658 5657 5654 5653 5656 5657 5659 5659 5660 5661 5661 5662 5663
5701 5699 5698 5696 5693 5691 5689 5687 5684 5681 5679 5677 5675 5674 5674 5674 5673 5672 5670 5668 5666 5665 5664 5663 5662 5661 5660 5657 5655 5654 5652 5651 5650 5649 5647 5649 5651 5653 5654 5655 5655 5656 5657
5697 5695 5694 5692 5690 5688 5686 5683 5681 5678 5675 5673 5671 5669 5669 5668 5668 5667 5666 5664 5663 5661 5660 5659 5658 5657 5656 5654 5652 5651 5649 5647 5645 5644 5642 5642 5643 5646 5648 5649 5650 5651 5651